This is the latest recevied weather packets stored in our database for station/object WB3EGK. If no packets are shown the sender has not sent any weather packets the latest 10 day(s).
| Time | Temp. | Humidity | Pressure | Rain* | Wind** | Luminosity | Snow |
|---|---|---|---|---|---|---|---|
| 1778144029 | 2.22° C | 1% | 1010.1 hPa | 0 mm | - | 0 W/m² | - |
| 1778143726 | 2.22° C | 1% | 1010.2 hPa | 0 mm | - | 0 W/m² | - |
| 1778143423 | 2.22° C | 1% | 1010.1 hPa | 0 mm | - | 0 W/m² | - |
| 1778143120 | 2.22° C | 1% | 1010.1 hPa | 0 mm | - | 0 W/m² | - |
| 1778142816 | 2.22° C | 1% | 1010.1 hPa | 0 mm | - | 0 W/m² | - |
| 1778142513 | 2.78° C | 1% | 1010.5 hPa | 0 mm | - | 0 W/m² | - |
| 1778142208 | 2.78° C | 1% | 1010.2 hPa | 0 mm | - | 0 W/m² | - |
| 1778141906 | 2.22° C | 1% | 1010.3 hPa | 0 mm | - | 0 W/m² | - |
| 1778141601 | 2.22° C | 1% | 1010.3 hPa | 0 mm | - | 0 W/m² | - |
| 1778141298 | 2.78° C | 1% | 1010.4 hPa | 0 mm | - | 0 W/m² | - |
| 1778140995 | 2.78° C | 1% | 1010.4 hPa | 0 mm | - | 0 W/m² | - |
| 1778140690 | 2.78° C | 1% | 1010.4 hPa | 0 mm | - | 0 W/m² | - |
| 1778140386 | 2.78° C | 1% | 1010.2 hPa | 0 mm | - | 0 W/m² | - |
| 1778140083 | 2.78° C | 1% | 1010.4 hPa | 0 mm | - | 0 W/m² | - |
| 1778139781 | 2.78° C | 1% | 1010.3 hPa | 0 mm | - | 0 W/m² | - |
| 1778139477 | 2.78° C | 1% | 1010.3 hPa | 0 mm | - | 0 W/m² | - |
| 1778139174 | 2.78° C | 1% | 1010.2 hPa | 0 mm | - | 0 W/m² | - |
| 1778138872 | 3.33° C | 1% | 1010.3 hPa | 0 mm | - | 0 W/m² | - |
| 1778138569 | 3.33° C | 1% | 1010.4 hPa | 0 mm | - | 0 W/m² | - |
| 1778138266 | 3.33° C | 1% | 1010.4 hPa | 0 mm | - | 0 W/m² | - |
| 1778137963 | 3.33° C | 1% | 1010.6 hPa | 0 mm | - | 0 W/m² | - |
| 1778137660 | 3.89° C | 1% | 1010.5 hPa | 0 mm | - | 0 W/m² | - |
| 1778137357 | 3.33° C | 1% | 1010.4 hPa | 0 mm | - | 0 W/m² | - |
| 1778137053 | 3.33° C | 1% | 1010.4 hPa | 0 mm | - | 0 W/m² | - |
| 1778136750 | 3.33° C | 1% | 1010.5 hPa | 0 mm | - | 0 W/m² | - |
* Rain latest hour (hover to see other rain measurements)
** Current wind speed in m/s (hover to see current wind gust speed)